Date String (YYYY-MM-DD hh:mm:ss) UTC,Instrument flags,Ambient pressure (hPa),Sample flow (lpm),Bypass flow (lpm),Sample temperature (°C),Ambient temperature (°C),ASC tube jacket temperature (°C),LED temperature (°C),Box temperature (°C),Sample RH (%),Span deviation,Mass concentration (μg/m³),Mass concentration (μg/m³),Mass concentration (μg/m³)
DateTimeUTC,F1_M11,P_M11,Q1_M11,Q2_M11,T1_M11,T2_M11,T3_M11,T4_M11,T5_M11,U1_M11,ZSPAN_M11,X0_M11,X2_M11,X1_M11
2022-10-26 22:00:00,,0818.0,5.00,0.00,27.0,25.8,00.0,35.8,29.0,13.2,0000.0,0009.52,0004.17,0003.61
2022-10-26 22:01:00,,0818.0,5.00,0.00,27.1,25.8,00.0,35.8,29.0,13.1,0000.0,0009.63,0004.14,0003.57
2022-10-26 22:02:00,,0818.0,5.00,0.00,27.1,25.8,00.0,35.8,29.0,13.1,0000.0,0009.78,0004.09,0003.52
2022-10-26 22:03:00,,0818.0,5.00,0.00,27.1,25.8,00.0,35.8,29.0,13.1,0000.0,0010.39,0004.05,0003.47
2022-10-26 22:04:00,,0818.0,5.02,0.00,27.1,25.8,00.0,35.8,29.0,13.0,0000.0,0010.64,0003.96,0003.42
2022-10-26 22:05:00,,0818.0,4.99,0.00,27.1,25.9,00.0,35.8,29.0,13.0,0000.0,0010.53,0003.91,0003.37
2022-10-26 22:06:00,,0818.0,5.00,0.00,27.1,25.9,00.0,35.8,29.1,13.0,0000.0,0009.84,0003.84,0003.34
2022-10-26 22:07:00,,0818.0,5.01,0.00,27.2,25.9,00.0,35.9,29.1,13.0,0000.0,0009.87,0003.79,0003.30
2022-10-26 22:08:00,,0818.0,4.99,0.00,27.2,26.0,00.0,35.9,29.1,12.9,0000.0,0009.75,0003.78,0003.28
2022-10-26 22:09:00,,0817.9,4.99,0.00,27.2,26.0,00.0,35.9,29.1,12.9,0000.0,0009.66,0003.74,0003.24
2022-10-26 22:10:00,,0818.0,5.02,0.00,27.2,26.1,00.0,35.9,29.2,12.9,0000.0,0009.67,0003.73,0003.21
2022-10-26 22:11:00,,0818.0,4.99,0.00,27.2,26.1,00.0,35.9,29.2,12.8,0000.0,0009.63,0003.67,0003.17
2022-10-26 22:12:00,,0818.0,4.99,0.00,27.3,26.1,00.0,35.9,29.2,12.8,0000.0,0009.67,0003.64,0003.14
2022-10-26 22:13:00,,0818.0,5.00,0.00,27.3,26.1,00.0,36.0,29.2,12.8,0000.0,0009.35,0003.60,0003.08
2022-10-26 22:14:00,,0818.1,5.02,0.00,27.3,26.1,00.0,36.0,29.3,12.7,0000.0,0009.55,0003.53,0003.01
2022-10-26 22:15:00,,0818.1,5.00,0.00,27.3,26.2,00.0,36.0,29.3,12.7,0000.0,0009.78,0003.48,0002.94
2022-10-26 22:16:00,,0818.1,5.00,0.00,27.3,26.2,00.0,36.0,29.3,12.8,0000.0,0009.94,0003.46,0002.91
2022-10-26 22:17:00,,0818.0,5.00,0.00,27.4,26.2,00.0,36.0,29.3,12.8,0000.0,0010.22,0003.44,0002.88
2022-10-26 22:18:00,,0818.1,5.00,0.00,27.4,26.2,00.0,36.0,29.3,12.8,0000.0,0009.95,0003.44,0002.85
2022-10-26 22:19:00,,0818.2,5.00,0.00,27.4,26.2,00.0,36.0,29.3,12.8,0000.0,0009.68,0003.46,0002.82
2022-10-26 22:20:00,,0818.2,5.00,0.00,27.4,26.2,00.0,36.1,29.3,12.9,0000.0,0010.52,0003.46,0002.81
2022-10-26 22:21:00,,0818.2,5.00,0.00,27.4,26.2,00.0,36.1,29.4,13.0,0000.0,0011.01,0003.55,0002.97
2022-10-26 22:22:00,,0818.2,5.00,0.00,27.4,26.2,00.0,36.1,29.4,13.0,0000.0,0011.23,0003.73,0003.13
2022-10-26 22:23:00,,0818.2,5.01,0.00,27.5,26.3,00.0,36.1,29.4,13.0,0000.0,0011.26,0003.85,0003.21
2022-10-26 22:24:00,,0818.2,5.00,0.00,27.5,26.3,00.0,36.1,29.4,12.9,0000.0,0011.53,0003.97,0003.29
2022-10-26 22:25:00,,0818.2,5.00,0.00,27.5,26.3,00.0,36.2,29.4,12.7,0000.0,0010.79,0004.03,0003.31
2022-10-26 22:26:00,,0818.2,5.01,0.00,27.5,26.3,00.0,36.2,29.5,12.7,0000.0,0010.07,0004.04,0003.31
2022-10-26 22:27:00,,0818.2,5.00,0.00,27.5,26.3,00.0,36.2,29.5,12.7,0000.0,0009.73,0004.04,0003.31
2022-10-26 22:28:00,,0818.2,5.00,0.00,27.5,26.3,00.0,36.2,29.5,12.6,0000.0,0009.31,0004.04,0003.30
2022-10-26 22:29:00,,0818.2,5.00,0.00,27.5,26.3,00.0,36.2,29.5,12.6,0000.0,0009.23,0004.01,0003.30
2022-10-26 22:30:00,,0818.2,5.00,0.00,27.5,26.3,00.0,36.2,29.5,12.5,0000.0,0009.17,0003.95,0003.30
2022-10-26 22:31:00,,0818.2,5.00,0.00,27.6,26.3,00.0,36.2,29.5,12.5,0000.0,0008.89,0003.93,0003.29
2022-10-26 22:32:00,,0818.1,5.00,0.00,27.6,26.4,00.0,36.3,29.5,12.6,0000.0,0008.19,0003.81,0003.20
2022-10-26 22:33:00,,0818.1,5.00,0.00,27.6,26.4,00.0,36.3,29.5,12.5,0000.0,0008.55,0003.66,0003.06
2022-10-26 22:34:00,,0818.1,5.00,0.00,27.6,26.4,00.0,36.3,29.5,12.5,0000.0,0008.89,0003.52,0002.89
2022-10-26 22:35:00,,0818.1,5.00,0.00,27.6,26.4,00.0,36.3,29.6,12.6,0000.0,0009.03,0003.40,0002.74
2022-10-26 22:36:00,,0818.1,5.00,0.00,27.7,26.4,00.0,36.3,29.6,12.5,0000.0,0009.27,0003.36,0002.67
2022-10-26 22:37:00,,0818.2,5.00,0.00,27.7,26.5,00.0,36.3,29.6,12.5,0000.0,0009.66,0003.37,0002.67
2022-10-26 22:38:00,,0818.2,5.00,0.00,27.7,26.5,00.0,36.3,29.6,12.5,0000.0,0010.03,0003.36,0002.66
2022-10-26 22:39:00,,0818.2,4.99,0.00,27.7,26.5,00.0,36.4,29.6,12.5,0000.0,0010.15,0003.38,0002.66
2022-10-26 22:40:00,,0818.2,4.99,0.00,27.7,26.5,00.0,36.4,29.6,12.5,0000.0,0010.18,0003.39,0002.66
2022-10-26 22:41:00,,0818.2,5.00,0.00,27.7,26.5,00.0,36.4,29.7,12.5,0000.0,0010.18,0003.38,0002.65
2022-10-26 22:42:00,,0818.2,5.00,0.00,27.7,26.5,00.0,36.4,29.7,12.4,0000.0,0010.23,0003.39,0002.65
2022-10-26 22:43:00,,0818.2,5.01,0.00,27.8,26.5,00.0,36.4,29.7,12.4,0000.0,0010.12,0003.40,0002.66
2022-10-26 22:44:00,,0818.2,5.00,0.00,27.8,26.5,00.0,36.4,29.7,12.4,0000.0,0009.78,0003.39,0002.64
2022-10-26 22:45:00,,0818.2,5.00,0.00,27.8,26.5,00.0,36.4,29.7,12.4,0000.0,0009.25,0003.39,0002.63
2022-10-26 22:46:00,,0818.2,5.01,0.00,27.8,26.5,00.0,36.5,29.7,12.4,0000.0,0008.90,0003.41,0002.65
2022-10-26 22:47:00,,0818.2,4.99,0.00,27.8,26.4,00.0,36.5,29.7,12.4,0000.0,0008.46,0003.42,0002.67
2022-10-26 22:48:00,,0818.2,5.00,0.00,27.8,26.4,00.0,36.5,29.7,12.3,0000.0,0008.21,0003.38,0002.65
2022-10-26 22:49:00,,0818.3,5.01,0.00,27.8,26.4,00.0,36.5,29.7,12.3,0000.0,0007.66,0003.37,0002.64
2022-10-26 22:50:00,,0818.3,4.99,0.00,27.8,26.4,00.0,36.5,29.7,12.3,0000.0,0007.56,0003.31,0002.61
2022-10-26 22:51:00,,0818.3,5.01,0.00,27.8,26.4,00.0,36.5,29.7,12.3,0000.0,0007.24,0003.28,0002.58
2022-10-26 22:52:00,,0818.3,5.00,0.00,27.8,26.5,00.0,36.5,29.7,12.3,0000.0,0006.65,0003.28,0002.56
2022-10-26 22:53:00,,0818.4,4.99,0.00,27.8,26.5,00.0,36.5,29.7,12.3,0000.0,0005.98,0003.27,0002.53
2022-10-26 22:54:00,,0818.4,5.01,0.00,27.8,26.5,00.0,36.5,29.7,12.3,0000.0,0005.99,0003.25,0002.50
2022-10-26 22:55:00,,0818.4,5.00,0.00,27.8,26.6,00.0,36.5,29.7,12.2,0000.0,0005.98,0003.24,0002.51
2022-10-26 22:56:00,,0818.4,4.99,0.00,27.8,26.6,00.0,36.6,29.8,12.2,0000.0,0005.75,0003.19,0002.50
2022-10-26 22:57:00,,0818.4,4.99,0.00,27.9,26.6,00.0,36.6,29.8,12.2,0000.0,0005.73,0003.17,0002.48
2022-10-26 22:58:00,,0818.4,5.02,0.00,27.9,26.6,00.0,36.6,29.8,12.2,0000.0,0005.68,0003.14,0002.44
2022-10-26 22:59:00,,0818.4,5.00,0.00,27.9,26.6,00.0,36.6,29.8,12.2,0000.0,0007.14,0003.17,0002.44
